Location: Akp?nar Deresi
(36.5333°N, 30.2667°E)
Time: 15:08:06
(UTC+00:00)

Daily predictions for brighter satellites

Satellite Brightness Start Highest point End
(mag) Time Altitude Azimuth Time Altitude Azimuth Time Altitude Azimuth
SPOT 5 4.3 17:47:40 10° ESE 17:50:40 18° ENE 17:53:43 10° NNE
SPOT 1/Viking Rocket 4.1 17:46:16 10° S 17:51:18 60° W 17:56:23 10° NNW
Cosmos 1850 Rocket 4.3 17:46:18 10° SSW 17:51:30 77° WNW 17:56:43 10° NNE
SJ-6B 4.2 17:49:06 10° SSW 17:52:25 35° W 17:55:49 10° NNW
CARTOSAT-1 3.5 17:50:48 10° SSE 17:55:02 74° ENE 17:59:18 10° N
Feng Yun 1-1 Rocket 4.4 17:49:41 10° SSE 17:55:28 81° ENE 18:01:07 10° NNW
RESURS DK-1 2.7 17:54:41 10° NNW 17:58:43 64° WSW 18:02:44 10° SSE
Cosmos 1655 Rocket 4.3 17:53:04 10° SSE 17:59:08 49° E 18:05:15 10° NNE
Cosmos 1733 Rocket 4.3 17:57:22 10° NNE 18:01:05 26° ENE 18:04:45 10° SE
Geosat 4.4 17:57:07 10° NNE 18:02:07 69° WNW 18:07:04 10° SW
CSL-04 Rocket 3.7 17:57:17 10° SSE 18:02:35 83° ENE 18:08:00 10° NNW
SL-16 R/B 2.7 17:58:21 10° NNW 18:03:57 63° WSW 18:09:31 10° S
USA 186 3.2 18:06:10 10° S 18:09:17 39° W 18:12:25 10° NNW
Cosmos 1346 Rocket 3.4 18:08:55 10° N 18:12:30 37° ENE 18:15:34 13° SE
Resurs 01 Rocket 2.0 18:08:20 10° S 18:12:41 64° W 18:17:03 10° NNW
Cosmos 1315 Rocket 4.0 18:10:35 11° SE 18:13:30 23° E 18:16:42 10° NE
Meteor 1-21 4.4 18:10:16 10° S 18:15:56 59° E 18:21:39 10° NNE
SL-4 R/B 4.1 18:16:04 10° NNW 18:18:46 18° NNE 18:21:33 10° ENE
Aureole 3 4.3 18:15:10 10° SSE 18:19:15 42° E 18:24:18 10° NNE
Cosmos 841 Rocket 4.3 18:17:03 10° NNW 18:22:08 50° WSW 18:27:10 10° S
ATLAS 2AS CENTAUR R/B 2.6 18:18:47 10° NNW 18:25:34 85° ENE 18:31:15 15° SSE
Cosmos 2333 Rocket 2.2 18:19:52 10° NNW 18:25:39 84° ENE 18:30:51 13° SSE
SL-14 R/B 3.4 18:22:54 10° SSW 18:26:40 71° W 18:30:28 10° N
Cosmos 1300 2.4 18:26:00 10° N 18:29:33 73° E 18:32:21 15° SSE
CZ-4C R/B 3.3 18:28:01 10° NNE 18:32:07 72° ESE 18:36:03 10° S
COSMOS 2455 3.1 18:30:13 10° S 18:35:56 48° ESE 18:41:42 10° NE
Cosmos 2315 Rocket 4.0 18:30:28 10° N 18:36:52 77° E 18:42:49 12° S
SJ 16-02 2.5 18:35:01 10° SW 18:39:07 44° WNW 18:43:16 10° N
Cosmos 2322 Rocket 3.0 18:35:01 10° NNW 18:40:30 49° WSW 18:45:57 10° S
Cosmos 2297 Rocket 3.3 18:39:57 19° SE 18:41:56 23° E 18:46:17 10° NE
IRS-1A Rocket 4.4 18:39:51 18° SE 18:43:47 57° ENE 18:49:12 10° N
Cosmos 2333 4.3 18:39:38 10° NNW 18:45:27 86° WSW 18:49:47 18° SSE
SeaSat 1 4.3 18:44:39 12° E 18:47:31 18° NE 18:50:47 10° N
CENTAUR R/B 3.8 18:48:22 15° E 18:48:22 15° E 18:51:26 10° ENE
Okean 1-7 3.1 18:45:50 20° SSE 18:48:39 54° E 18:52:52 10° NNE
Okean 2 3.5 18:46:49 22° SSE 18:49:07 52° E 18:53:02 10° NNE
Okean 3 3.6 18:49:56 10° SSW 18:54:03 71° W 18:58:14 10° N
Cosmos 2219 Rocket 2.2 18:48:44 10° NNW 18:54:26 81° ENE 18:58:01 24° SSE
Cosmos 1455 3.1 18:51:27 10° NNE 18:54:29 27° ENE 18:55:01 26° E
Okean-O 3.2 18:52:53 14° S 18:56:32 54° W 19:00:52 10° NNW
Cosmos 1862 Rocket 4.5 18:56:13 10° SSW 19:00:28 48° W 19:04:47 10° N
Cosmos 1703 Rocket 3.9 18:58:55 29° SSE 19:00:43 46° E 19:04:58 10° NNE
Cosmos 1758 4.5 18:57:14 10° NNW 19:00:56 39° W 19:04:12 12° SSW
CZ-4C R/B 1.5 18:58:08 10° SSW 19:02:17 89° ESE 19:07:21 10° NNE
Okean O Rocket 3.7 18:59:49 10° SSW 19:03:16 23° W 19:06:44 10° NW
BREEZE-M DEB (TANK) 2.3 19:01:02 10° SW 19:04:09 89° SE 19:06:31 10° NE
USA 245 3.7 19:03:08 32° SSE 19:04:58 67° ENE 19:09:59 10° N
Cosmos 371 Rocket 3.7 19:04:12 30° SSE 19:05:54 42° ESE 19:10:26 10° NNE
Ariane Rocket 3.4 19:04:16 29° SE 19:06:33 49° ENE 19:11:27 10° N
MetOp-B 4.3 19:03:28 19° S 19:07:21 69° WSW 19:12:42 10° NNW
Cosmos 839 Rocket 4.0 19:01:49 10° NNW 19:08:20 88° SW 19:11:48 28° SSE
Delta 2 Rocket 2.5 19:08:54 10° WSW 19:12:09 69° S 19:12:19 66° SSE
Terra 1.7 19:11:07 33° SSE 19:13:11 74° ENE 19:17:53 10° N
Cosmos 1242 Rocket 1.9 19:16:10 71° WNW 19:16:10 71° WNW 19:18:51 10° N
Meteor 1-4 Rocket 4.5 19:13:51 10° SW 19:16:15 22° WNW 19:18:40 10° NNW
Cosmos 1486 Rocket 3.9 19:14:16 25° S 19:17:14 65° ESE 19:22:23 10° NNE
DNEPR-1 R/B 4.5 19:11:35 10° NW 19:17:26 55° WSW 19:19:53 28° S
MOS 1 Rocket 3.6 19:15:36 33° SSE 19:18:03 71° ENE 19:23:12 10° N
Helios 1B 4.4 19:14:35 10° NNE 19:18:54 78° E 19:20:43 34° S
Iridium 51 4.5 19:19:41 30° SSW 19:21:41 76° W 19:25:46 10° N
USA 234 3.2 19:16:08 10° NE 19:22:39 66° SE 19:29:06 10° SSW
Cosmos 2360 Rocket 3.9 19:19:57 10° NW 19:24:33 26° WSW 19:28:52 11° SSW
SPOT 5 3.9 19:25:46 18° SSW 19:28:23 34° W 19:32:27 10° NNW
COSMOS 2428 2.7 19:23:05 10° NNW 19:28:47 71° ENE 19:30:54 40° SE
Cosmos 304 Rocket 3.6 19:31:20 45° SSE 19:32:38 67° ESE 19:37:22 10° NNE
Cosmos 1953 2.2 19:29:54 10° NNW 19:33:42 72° W 19:34:19 57° SSW
GOES 2 Rocket 4.3 19:30:49 10° WSW 19:37:46 41° S 19:38:42 39° SSE
Cosmos 1354 Rocket 4.3 19:38:53 44° ESE 19:39:26 46° ESE 19:44:28 10° NNE
ERS-1 Rocket 3.8 19:41:28 27° SSW 19:43:46 45° W 19:48:34 10° NNW
SL-12 R/B(2) 4.3 19:52:15 38° SSE 19:54:43 49° ESE 20:03:13 10° NE
Cosmos 1709 Rocket 4.1 19:53:26 46° SE 19:55:08 61° E 20:01:22 10° NNE
SL-4 R/B 2.0 19:53:55 10° NW 19:57:36 77° WNW 19:57:36 77° WNW
Cosmos 773 Rocket 4.2 19:53:12 10° N 19:58:16 53° ENE 19:58:55 50° E
Cosmos 2242 Rocket 3.5 19:58:29 74° ESE 19:58:36 75° E 20:03:10 10° N
Cosmos 1408 3.9 20:00:53 30° N 20:00:53 30° N 20:02:36 10° N
NOSS 3-2 (A) 3.9 20:01:18 33° E 20:01:18 33° E 20:05:09 10° NE
Cosmos 1908 Rocket 4.4 19:57:45 10° NNW 20:01:47 40° W 20:02:37 36° WSW
Cosmos 332 Rocket 4.0 20:02:57 53° E 20:02:57 53° E 20:07:19 10° NNE
Cosmos 1782 Rocket 3.5 20:01:39 10° N 20:06:00 79° W 20:06:01 79° WSW
SL-16 R/B 4.1 20:02:37 10° NNE 20:06:15 17° NE 20:08:09 15° ENE
Cosmos 2227 Rocket 2.1 20:06:01 61° SE 20:06:37 66° ESE 20:12:15 10° NNE
Cosmos 2237 Rocket 2.4 20:02:00 10° NNW 20:07:35 56° ENE 20:08:28 51° E
Cosmos 1300 Rocket 3.5 20:05:25 10° N 20:09:35 83° NNW 20:09:35 83° NNW
Cosmos 1066 4.5 20:15:51 69° SE 20:16:21 74° E 20:21:53 10° NNE
Meteor 2-5 Rocket 3.7 20:16:54 64° SSE 20:17:44 76° E 20:23:32 10° NNE
H-2A R/B 4.5 20:20:07 19° ENE 20:20:07 19° ENE 20:22:37 10° NNE
NOSS 0 Rocket 4.0 20:15:32 10° NNW 20:21:42 66° WSW 20:22:55 54° SSW
Cosmos 1980 3.5 20:16:35 10° NNW 20:22:17 82° ENE 20:22:53 71° SE
Cosmos 1777 Rocket 4.4 20:20:52 42° SW 20:22:25 60° WNW 20:27:39 10° N
SeaSat 1 2.6 20:24:21 57° WSW 20:24:30 58° WSW 20:29:21 10° NNW
Cosmos 2297 Rocket 3.2 20:21:39 17° SW 20:25:37 42° WNW 20:30:59 10° N
ARIANE 5 R/B 3.4 20:26:17 42° NE 20:26:17 42° NE 20:29:49 10° N
GP-B 3.7 20:25:12 10° N 20:29:27 50° W 20:29:29 50° W
MetOp-A 4.4 20:31:43 51° WSW 20:32:12 53° W 20:37:17 10° NNW
CENTAUR R/B 2.6 20:35:25 37° WSW 20:37:35 63° NW 20:44:08 10° NNE
BREEZE-M R/B 3.4 20:42:22 56° ENE 20:42:22 56° ENE 20:48:15 10° NE
Cosmos 2219 3.2 20:42:06 66° E 20:42:06 66° E 20:47:16 10° NNE
Cosmos 2263 Rocket 2.8 20:45:28 44° ENE 20:45:28 44° ENE 20:49:47 10° NNE
Meteor 1-24 Rocket 4.2 20:50:34 48° WSW 20:51:30 53° WNW 20:56:55 10° N
Cosmos 2151 Rocket 4.4 20:53:18 10° N 20:56:29 46° NNE 20:56:29 46° NNE
Okean 2 Rocket 3.9 20:57:40 10° N 21:01:01 48° NNE 21:01:01 48° NNE
Cosmos 1898 Rocket 4.3 21:07:56 42° NE 21:07:56 42° NE 21:11:38 10° NNE
ALOS 2 3.9 21:09:12 36° NE 21:09:12 36° NE 21:12:15 10° N
Cosmos 292 Rocket 4.5 21:11:22 50° NNE 21:11:22 50° NNE 21:14:55 10° NNE
USA 281 3.1 21:09:22 67° ESE 21:10:09 76° ENE 21:16:44 10° NNW
Cosmos 2074 Rocket 3.8 21:14:11 86° SSE 21:14:20 88° E 21:20:34 10° N
USA 238 DEB 4.4 21:20:48 33° E 21:20:48 33° E 21:25:11 10° NE
USA 238 4.5 21:20:51 33° E 21:20:51 33° E 21:25:13 10° NE
Aureole 1 Rocket 4.3 21:23:49 38° N 21:23:49 38° N 21:26:54 10° NNE
H-2A R/B 4.3 21:19:00 10° NE 21:20:15 17° NE 21:20:15 17° NE
Cosmos 2181 Rocket 4.0 21:18:15 10° NNW 21:24:17 64° W 21:24:25 63° W
Cosmos 1295 Rocket 4.3 21:28:10 82° W 21:28:11 82° W 21:34:21 10° N
Cosmos 1867 4.5 21:38:26 39° ENE 21:38:26 39° ENE 21:42:07 10° NE
CZ-3 Stage 3 4.4 21:11:54 10° WNW 21:37:30 38° SW 21:38:20 37° SW
Meteor 1-21 Rocket 4.3 21:38:57 73° NNE 21:38:57 73° NNE 21:44:03 10° N
Okean 1 Rocket 4.3 21:34:10 10° NNW 21:36:59 38° NNW 21:36:59 38° NNW
Cosmos 1025 Rocket 4.4 21:47:07 36° NNW 21:47:07 36° NNW 21:49:49 10° N
Cosmos 372 Rocket 4.4 21:46:47 60° NNW 21:46:47 60° NNW 21:51:10 10° NNE
SL-16 R/B 2.5 21:45:13 10° NNW 21:50:00 58° WNW 21:50:00 58° WNW
Cosmos 2237 Rocket 4.2 21:47:34 10° WNW 21:50:16 16° W 21:50:16 16° W
Cosmos 1975 Rocket 4.4 21:54:33 37° NNE 21:54:33 37° NNE 21:57:17 10° N
Cosmos 2082 4.5 21:54:18 42° WNW 21:54:39 43° WNW 21:59:59 10° N
Cosmos 1943 4.1 21:51:05 10° N 21:56:20 40° ENE 21:56:41 39° ENE
Nadezhda 3 Rocket 3.9 21:52:43 10° N 21:58:44 74° WNW 21:58:44 74° WNW
Cosmos 2366 rocket 4.5 22:01:03 48° E 22:01:03 48° E 22:06:54 10° NNE
NOSS 3-2 (C) 3.7 22:02:06 49° WNW 22:02:15 49° NW 22:07:57 10° NNE
Cosmos 2218 Rocket 4.4 22:06:46 51° E 22:06:46 51° E 22:12:36 10° NNE
Cosmos 1455 Rocket 4.4 22:02:19 10° N 22:05:09 39° NNW 22:05:09 39° NNW
SL-8 Rocket 3.8 22:26:19 88° NNW 22:26:19 88° NNW 22:32:29 10° N
Cosmos 2263 Rocket 4.0 22:27:07 19° WNW 22:28:35 21° WNW 22:32:46 10° N
Cosmos 1844 3.7 22:41:19 76° NE 22:41:19 76° NE 22:46:44 10° NNE
Cosmos 1959 Rocket 4.4 22:42:26 83° WSW 22:42:35 84° W 22:48:58 10° N
Cosmos 1844 Rocket 2.7 22:44:32 74° NNW 22:44:32 74° NNW 22:49:42 10° NNE
CZ-2D R/B 4.2 22:42:19 10° ENE 22:45:10 15° E 22:45:40 14° E
Resurs 1-4 Rocket 3.8 22:52:49 10° NE 22:56:46 21° E 22:57:15 21° ESE
H-2A R/B 4.1 22:54:54 10° NNW 22:57:02 19° NW 22:57:02 19° NW
Cosmos 1727 Rocket 4.2 22:57:12 10° N 23:03:32 65° E 23:04:36 56° SE
BlueWalker 3 4.5 23:04:15 10° NNW 23:07:05 20° NNE 23:09:56 10° E
Cosmos 921 Rocket 4.0 23:03:46 10° N 23:06:40 42° N 23:06:40 42° N
Cosmos 1437 Rocket 4.5 23:10:54 29° N 23:10:54 29° N 23:12:53 10° N
IDEFIX/ARIANE 42P 3.4 23:05:01 10° NNE 23:09:53 38° E 23:10:02 38° ESE
SL-08 R/B 4.4 23:17:33 67° SSE 23:18:23 78° E 23:24:36 10° N
NPP 3.9 23:23:00 10° NNE 23:28:19 56° E 23:28:51 54° SE
Cosmos 2278 Rocket 4.2 23:28:20 15° ESE 23:30:03 17° E 23:33:39 10° ENE
Cosmos 724 4.2 23:25:53 10° NNW 23:31:44 83° ENE 23:33:01 57° SE
Cosmos 1821 Rocket 4.2 23:32:20 51° W 23:32:53 53° W 23:38:54 10° N
NOSS 2-3 (E) 4.2 23:40:51 43° NE 23:40:51 43° NE 23:43:31 10° NE
Cosmos 1603 4.4 23:35:10 10° NW 23:39:41 39° W 23:39:41 39° W
Helios 1A Rocket 4.2 23:42:09 30° NW 23:42:09 30° NW 23:44:16 10° NNW
Lacrosse 5 2.5 23:43:42 41° ESE 23:43:42 41° ESE 23:48:21 10° NE
Alouette 2 Rocket 3.7 23:48:11 62° NE 23:48:11 62° NE 23:51:14 10° NNE
NOSS 2-3 (C) 3.9 23:48:41 50° NNE 23:48:41 50° NNE 23:51:33 10° NNE
CZ-2C R/B 3.4 23:43:16 10° NNE 23:48:14 51° E 23:49:03 46° SE
Gbstr 26 Del rocket 3.6 23:47:45 66° SSW 23:48:36 81° SE 23:55:21 10° NE
Cosmos 2298 Rocket 3.9 23:49:57 71° S 23:50:33 88° ESE 23:55:54 10° NNE
Timation 2 Rocket 4.3 23:49:28 45° WSW 23:51:03 55° WNW 23:57:17 10° NNE
COBE Rocket 4.3 23:47:02 10° N 23:52:01 52° WNW 23:52:20 51° W
NOSS 2-2 (E) 4.2 23:55:03 38° NNE 23:55:03 38° NNE 23:57:06 10° NNE
Cosmos 1606 Rocket 4.0 23:50:31 10° NNW 23:54:10 50° WNW 23:54:10 50° WNW
